Location: Orange
(33.2833°S, 149.1000°E)
Time: 18:41:12
(UTC+11:00)

Hubble Space Telescope - Pass Details

Date: 05 October 2022
Orbit: 530 x 534 km, 28.5° (Epoch: 04 December)

Event Time Altitude Azimuth Distance (km) Brightness Sun altitude
Exits shadow 04:29:08 28° 53° (NE) 1,027 2.4 -26.3°
Drops below altitude 10° 04:31:27 10° 75° (ENE) 1,788 4.0 -25.9°
Sets 04:33:48 0° 82° (E) 2,680 5.2 -25.5°
